NOAA 16 DEB

Satellite information

Favourite Embed

Satellite Type and Status

DEBRISIN ORBIT

Key statistics

Satellite NOAA 16 DEB at a glance.

Uptime

8997

Days in orbit

Revolutions

≈ 14.2

Per day

Orbit

SSO

Sun Synchronous Orbit

Inclination

98.7

Latest

Satellite identification and parameters

Extended collection of information and parameters for NOAA 16 DEB.

Object identification

Identified? True

Debris? True

Object name: NOAA 16 DEB

International designator: 2000-055AU

Object number (NORAD): 41085

Object ID (CCSDS): 41085

Country: UNITED STATES OF AMERICA (US)

Current information (Y/N): Y

RCS size: SMALL

Orbital parameters

Period: 101.225 minutes

Inclination: 98.7146 deg

SMA: 7194.808 km

Apoapsis: 830.216 km

Periapsis: 803.129 km

RAAN: 217.4888 deg

Eccentricy: 0.0018824

Argument of periapsis: 339.6704 deg

Mean anomaly: 20.3723 deg

Mean motion: 14.22571077 rev/day

Mean motion (dot): 0.00001627 rev/day2

B* drag term: 0.00074658 1/REarth

Two-line elements (TLE)

Creation date: May 9, 2025, 2:46 a.m.

Reference frame: TEME

Reference center: EARTH

Epoch: May 8, 2025, 5:23 p.m. UTC

TLE line 0: 0 NOAA 16 DEB

TLE line 1: 1 41085U 00055AU 25128.72476897 .00001627 00000-0 74658-3 0 9995

TLE line 2: 2 41085 98.7146 217.4888 0018824 339.6704 20.3723 14.22571077488731

Live tracking on map

Real-time ground track for satellite NOAA 16 DEB.

In-orbit conjunctions

A list of the most updated potential collisions computed for object NOAA 16 DEB.

Target Orbit TCA Probability of collision Miss distance Type
CZ-6A DEB LEO 2024-12-20 18:04:29 0.0001502718 102.0 (m) DEBRIS
NOAA 14 SSO 2024-09-24 03:25:45 0.0004981372 97.0 (m) PAYLOAD

Associated space launch

The NOAA K, L and M POES satellites begin the fifth generation of improved environmental monitoring in support of NOAA missions. The instrument payload has significant improvements and additions/deletions. The instrument changes have effected the spacecraft subsystems and data formats.

NOAA 16 DEB was lifted into orbit during the mission ‘Titan II SLV | NOAA 16’, on board a Titan II SLV space rocket.

The launch took place on Sept. 21, 2000, 10:22 a.m. from Space Launch Complex 4W.

For more information about the launch, click the button.

Launch to space Titan II SLV | NOAA 16
Titan II SLV | NOAA 16

Agency: N/A

Status: Launch Successful

Launch date: Sept. 21, 2000, 10:22 a.m. UTC

Rocket: Titan II SLV

Launch pad: Space Launch Complex 4W

Location: Vandenberg SFB, CA, USA

...

Latest news about this satellite

There are no fresh news available about this satellite. Check back as we update our databases every day.


Newsletter sign-up

Weekly statistics, charts and insights to help you stay on top of the space industry.